Location: Ajisawe
(8.4333°N, 4.3833°E)
Time: 22:16:40
(UTC+00:00)

Vanguard 1 Rocket - Pass Details

Date: 20 April 2021
Orbit: 652 x 4224 km, 34.3° (Epoch: 10 May)

Event Time Altitude Azimuth Distance (km) Brightness Sun altitude
Rises 04:45:19 0° 215° (SW) 8,437 11.9 -11.9°
Reaches altitude 10° 04:56:18 10° 195° (SSW) 7,360 11.7 -9.2°
Maximum altitude 05:09:09 16° 164° (SSE) 6,304 11.7 -6.1°
Drops below altitude 10° 05:19:38 10° 132° (SE) 6,010 12.1 -3.6°
Sets 05:26:32 0° 112° (ESE) 6,315 12.8 -1.9°
